Regional Weather Roundup
Issued by NWS Wakefield, VA

Home | Current Version | Previous Version | Graphics & Text | Print | Product List | Glossary On
Versions: 1 2 3 4 5 6 7 8 9 10 11 12 13 14 15 16 17 18 19 20 21 22 23 24 25 26 27
000
ASUS41 KAKQ 221915
RWRAKQ

REGIONAL WEATHER ROUNDUP
NATIONAL WEATHER SERVICE WAKEFIELD VA
300 PM EDT SUN OCT 22 2017

Note: "fair" indicates few or no clouds below 12,000 feet with no
significant weather and/or obstructions to visibility. * = Denotes
station may not report precipitation (e.g., rain,snow,etc.),
thunder or fog.

VAZ042-051-052>054-056-222000-
NORTHERN VIRGINIA

CITY           SKY/WX    TMP DP  RH WIND       PRES   REMARKS
WASH NATIONAL  PTSUNNY   76  55  48 S8        30.32F
DULLES         MOSUNNY   75  58  55 S9        30.32F
FORT BELVOIR   NOT AVBL
QUANTICO       SUNNY     74  60  61 S3        30.33F
FREDERICKSBRG* SUNNY     77  58  51 E5        30.30F
STAFFORD*      SUNNY     76  56  49 S10       30.35F
WARRENTON      SUNNY     78  52  39 S7        30.30F
CULPEPER*      MOSUNNY   78  53  42 S6        30.31F
MANASSAS*      SUNNY     75  58  55 SE10      30.32F
LEESBURG*      SUNNY     77  59  53 S8        30.32F
WINCHESTER     SUNNY     73  52  46 SE14      30.29F
FRONT ROYAL*   CLEAR     77  54  44 S7        30.28F
LURAY*         CLEAR     77  50  38 SE6       30.28F
$$

VAZ048-049-060>072-079>083-222000-
CENTRAL AND SOUTH CENTRAL VIRGINIA

CITY           SKY/WX    TMP DP  RH WIND       PRES   REMARKS
RICHMOND       MOSUNNY   76  55  48 S6        30.31F
CHESTERFIELD*  NOT AVBL
PETERSBURG*    MOSUNNY   76  56  49 E7        30.31F
HANOVER        SUNNY     76  56  49 S6        30.32F
TAPPAHANNOCK*  SUNNY     78  40  26 E8        30.33F
QUINTON*       FAIR      75  54  48 E3        30.32F
CHARLOTTSVILLE MOSUNNY   77  53  43 S6        30.29F
GORDONSVILLE*  CLEAR     76  55  48 SW3       30.30S
ORANGE*        SUNNY     75  54  46 S7        30.30F
LOUISA*        SUNNY     75  55  50 S5        30.30F
BUMPASS*       FAIR      75  58  54 S5        30.31F
FARMVILLE*     SUNNY     79  57  47 S8        30.29F
CREWE*         FAIR      78  57  48 SE6       30.30F
FORT PICKETT*  FAIR      77  55  47 E7        30.31F
CHASE CITY*    FAIR      77  54  45 CALM      30.31F
CLARKSVILLE*   FAIR      77  54  44 E7        30.30S
SOUTH HILL*    SUNNY     76  54  46 S6        30.36F
LAWRENCEVILLE* FAIR      77  52  41 S3        30.30F
EMPORIA*       SUNNY     77  54  44 E5        30.32F
$$

VAZ088>098-222000-
SOUTHEAST VIRGINIA

CITY           SKY/WX    TMP DP  RH WIND       PRES   REMARKS
NORFOLK        MOSUNNY   74  61  63 NE13      30.32F
VIRGINIA BEACH MOSUNNY   74  58  57 E9        30.32F
NORFOLK NAVAL  PTSUNNY   74  59  59 NE10      30.34F
WEST POINT*    SUNNY     75  50  41 S6        30.34F
SALUDA*        FAIR      72  64  75 E6        30.34S
NEWPORT NEWS   MOSUNNY   75  61  61 E6        30.32F
LANGLEY AFB    MOSUNNY   74  60  60 E8        30.32F
FORT EUSTIS    NOT AVBL
WILLIAMSBURG*  SUNNY     79  57  47 S6        30.34F
HR EXEC AP*    NOT AVBL
FRANKLIN*      SUNNY     78  52  39 SE5       30.32F
US460-WAKEFLD  SUNNY     77  53  43 E6        30.32F
$$

VAZ020-022-025-037-045-222000-
WEST CENTRAL AND SOUTHWEST VIRGINIA

CITY           SKY/WX    TMP DP  RH WIND       PRES   REMARKS
STAUNTON*      SUNNY     75  50  41 S9G16     30.31F
WAYNESBORO*    CLEAR     74  49  42 SE8G17    30.31F
HOT SPRINGS VA SUNNY     64  42  46 SE9G16    30.37F
LYNCHBURG      SUNNY     76  51  41 S13       30.31F
DANVILLE       SUNNY     78  49  35 VRB3      30.29F
SOUTH BOSTON*  FAIR      79  47  32 SE6       30.29F
MARTINSVILLE   MOSUNNY   75  53  46 SE3       30.32F
ROANOKE        MOSUNNY   73  53  49 SE9       30.31F
BLACKSBURG     SUNNY     72  50  45 SE6       30.33F
DUBLIN*        CLOUDY    74  46  36 S9G16     30.31F
MARION*        MOSUNNY   73  42  33 E9        30.31F
HILLSVILLE*    CLOUDY    68  42  38 S5        30.31F
RICHLANDS*     FAIR      73  26  17 SE8       30.26F
WISE*          CLOUDY    72  46  40 S8        30.26F
ABINGDON*      SUNNY     78  42  27 S6        30.23F
$$

MDZ021>025-VAZ099-100-222000-
SOUTHERN MARYLAND AND THE DELMARVA PENINSULA

CITY           SKY/WX    TMP DP  RH WIND       PRES   REMARKS
PATUXENT RIVER PTSUNNY   71  61  70 SE10      30.34F
BAY BRIDGE APT SUNNY     70  61  73 W7        30.35F
LEONARDTOWN    NOT AVBL
DOVER          MOSUNNY   72  59  64 E8        30.28F
GEORGETOWN     SUNNY     76  49  38 SE10      30.35F
EASTON         MOSUNNY   77  45  31 S6        30.38F
CAMBRIDGE      SUNNY     75  50  41 S7G13     30.34S
SALISBURY      SUNNY     76  53  44 SE6       30.34F
OCEAN CITY     SUNNY     69  60  73 SE6       30.36F
WALLOPS ISLAND SUNNY     71  61  70 SE8       30.35F
ACCOMACK*      SUNNY     74  60  61 E3        30.34F
$$

NCZ012>017-030>032-222000-
NORTH CENTRAL AND EASTERN NORTH CAROLINA

CITY           SKY/WX    TMP DP  RH WIND       PRES   REMARKS
ROANOKE RAPIDS FAIR      77  55  47 SE5       30.30F
RALEIGH        MOSUNNY   78  55  44 VRB5      30.30F
ELIZABETH CITY SUNNY     78  58  49 E8        30.32F
AHOSKIE*       SUNNY     77  56  48 E3        30.31F
EDENTON*       SUNNY     79  63  57 CALM      30.32F
CURRITUCK*     SUNNY     75  62  64 E5        30.34S
KILL DEVIL HLS SUNNY     74  64  70 CALM      30.32S
MANTEO         SUNNY    N/A N/A N/A E7        30.33S
CAPE HATTERAS  MOSUNNY   82  62  50 SE8       30.31F
TARBORO*       NOT AVBL
GOLDSBORO      MOSUNNY   81  58  45 SE6       30.27F HAZE
WASHINGTON     SUNNY     79  60  50 SE5       30.30F
GREENVILLE     MOSUNNY   79  59  50 CALM      30.30F
NEW BERN       SUNNY     79  64  60 E7        30.30F
WILMINGTON     MOSUNNY   79  64  60 E9        30.28F
$$

VAZ048-222000-
ELSEWHERE

CITY           SKY/WX    TMP DP  RH WIND       PRES   REMARKS
HARRISBURG PA  MOSUNNY   75  49  39 SE6       30.31F
BALTIMORE      PTSUNNY   74  47  38 SE6       30.33F
ANNAPOLIS      SUNNY     70  62  76 SE9       30.34F
ANDREWS AFB    SUNNY     74  52  45 SE9       30.34S
PHILADELPHIA   PTSUNNY   75  47  36 SE5       30.35F
HENDERSON NC   SUNNY     75  49  40 S7        30.30F
GREENSBORO     PTSUNNY   75  57  53 S7        30.28F
ROCKY MOUNT    SUNNY     78  56  46 SE5       30.30F
$$

VAZ100-222000-
MARINE

STATION/POSITION TIME  TEMP    WIND        PRES    WAVE   SWELL
                       AIR SEA DIR/SP/G            HT/PER HT/PER
                 (UTC) (F)     (DEG/KT/KT) (MB)    (FT/S) (FT/S)
BRANDYWINE LGT   1842   68     150/  8/  9 1028.6F
CAPE MAY NJ      1848   69 66  140/  9/ 11 1027.7F
LEWES DE         1848   69 66  140/  7/ 10 1028.1F
15NM E FENWICK I 1850   67 68  100/  6/  8 1028.5F   2/ 9   2/ 9
OCEAN-CITY-INLET 1848   69 68  150/  4/  6 1028.5F
WACHAPREAGUE VA  1848   70 69  100/  4/  6 1027.6F
THOMAS POINT MD  1900   67 68  210/  3/  3   N/A
GOOSES REEF MD   1900   69 69  220/ 12/ 12 1028.4    1/ 2
COVE POINT MD    1848   67     170/  8/  9 1028.4F
SOLOMONS ISLAND  1848   69 70  110/  8/  9 1027.1F
BISHOPS HEAD MD  1848   70 69  240/  5/  5 1028.0F
PINEY POINT MD   1842          150/  8/  9   N/A
POTOMAC MD       1900   69 70  120/  6/  8 1026.9    1
CAMBRIDGE MD     1842   77 69              1028.3F
LEWISETTA VA     1848   68 67  100/ 10/ 11 1027.3F
RAPPAHANNOCK LGT 1848          350/  1/  2 1028.0F
STINGRAY PT      1850   70     120/  4/  8 1027.8F
YORK RVR RNG VA  1842   70     140/  8/  8 1027.8F
YORKTOWN VA      1848   70 70   90/ 10/ 10 1026.8F
JAMESTOWN VA     1900      71  150/  4/  6   N/A     0
DOMINION TERM VA 1848   73      50/  2/  5 1027.2F
KIPTOPEKE VA     1848      68  200/  5/  7   N/A
CAPE HENRY VA    1848   70      90/  7/  7   N/A
WILLOUBY STN VA  1842   70      70/  9/ 10 1027.0F
S CRANEY ISL VA  1848   72      40/  9/ 10 1026.6F
CAPE HENRY BUOY  1830      70                N/A     2/ 8
1ST LANDING BUOY 1900   70 70              1027.0    1/ 3
CAPE CHARLES BUO 1851      71                N/A     2/ 8
64NM E OF VA BCH 1850   69 70   30/  6/  6 1027.5F   3/ 9   2/ 9
DUCK PIER NC     1848   73 70   80/  7/  8 1026.6F
44100 DUCK FRF   1847      71                N/A     3/25   2/25
44056 DUCK FRF   1900      70                N/A     2/ 9
OREGON INLET NC  1842   72 71   40/  6/  9 1026.5F
HATTERAS NC      1848   77 72  120/  5/  8 1026.4F
DIAMOND SHLS NC  1850   76 81   80/  4/  6 1026.2F   3/ 9   3/ 9
CAPE LOOKOUT NC  1900   78      90/  2/  3 1025.2F
$$




USA.gov is the U.S. government's official web portal to all federal, state and local government web resources and services.